User: anonymous
Location: Unspecified
(0.0000°N, 0.0000°E)
Time: 22:26:19
(UTC+00:00)
Language:

PROBA 2 - Orbit

View from above orbital plane
View from above orbital plane
View from above satellite
View from above satellite

Ground track
Ground track

The orbit data is extracted from the following two-line orbital elements,

1 36037U 09059B   14212.58822924  .00000094  00000-0  33977-4 0  4746
2 36037 098.2857 044.7999 0012462 337.4564 058.7255 14.52621454251441
Epoch (UTC): 31 July 2014 14:07:03
Eccentricity: 0.0012462
inclination: 98.2857°
perigee height: 708 km
apogee height: 726 km
right ascension of ascending node: 44.7999°
argument of perigee: 337.4564°
revolutions per day: 14.52621454
mean anomaly at epoch: 58.7255°
orbit number at epoch: 25144

The dashed part of the orbit path shows where the satellite is in the earth's shadow,  

DLR